This demonstration page uses our WeatherBlox Daily Observations layout. Learn more.

41.55636, -103.73856

Hourly Observations for August 26, 2019

Temp ( °F °C ) Dew Point ( °F °C ) Humidity (%) Winds ( mph kmh ) Pressure ( in mb ) Visibility ( mi km ) Precip ( " mm )
12:58 am 00:58 Clear 80 26.5 50 9.8 35 35 SSE 10 17 29.67 1005 10 16.0934 0 0
1:58 am 01:58 Mostly Clear 74 23.2 53 11.5 48 48 SSE 14 22 29.66 1005 10 16.0934 0 0
2:58 am 02:58 Clear 72 22.3 55 12.8 55 55 S 14 22 29.67 1005 10 16.0934 0 0
3:58 am 03:58 Partly Cloudy 74 23.2 56 13.4 54 54 SSW 18 30 29.65 1004 10 16.0934 0 0
4:58 am 04:58 Mostly Clear 69 20.6 55 12.9 61 61 SW 15 24 29.64 1004 10 16.0934 0 0
5:58 am 05:58 Clear 69 20.6 41 5 36 36 NW 17 28 29.67 1005 10 16.0934 0 0
6:58 am 06:58 Mostly Clear 60 15.6 55 12.6 82 82 NNE 21 33 29.76 1008 10 16.0934 0 0
7:58 am 07:58 Mostly Cloudy 60 15.3 53 11.7 79 79 N 20 31 29.83 1010 10 16.0934 0 0
8:58 am 08:58 Mostly Cloudy 58 14.3 52 11 81 81 N 10 17 29.87 1011 10 16.0934 0 0
9:58 am 09:58 Mostly Clear 55 13 51 10.5 85 85 NNW 3 6 29.88 1012 10 16.0934 0 0
10:58 am 10:58 Partly Cloudy 53 11.9 50 10.1 89 89 WSW 3 6 29.91 1013 10 16.0934 0 0
11:58 am 11:58 Clear 53 11.8 50 9.8 88 88 NNW 6 9 29.93 1014 10 16.0934 0 0
12:58 pm 12:58 Sunny 53 11.5 50 9.8 89 89 NW 7 11 29.95 1014 10 16.0934 0 0
1:58 pm 13:58 Sunny 57 14 51 10.4 79 79 NW 12 19 29.97 1015 10 16.0934 0 0
2:59 pm 14:59 Sunny 61 15.9 50 9.9 68 68 NW 16 26 29.98 1015 10 16.0934 0 0
3:58 pm 15:58 Mostly Sunny 64 17.6 49 9.3 58 58 NW 14 22 29.98 1015 10 16.0934 0 0
4:58 pm 16:58 Mostly Sunny 67 19.2 46 7.8 48 48 N 14 22 29.99 1016 10 16.0934 0 0
5:58 pm 17:58 Sunny 69 20.4 44 6.8 41 41 N 17 28 29.98 1015 10 16.0934 0 0
6:58 pm 18:58 Sunny 71 21.6 43 6 36 36 N 16 26 29.98 1015 10 16.0934 0 0
7:58 pm 19:58 Sunny 71 21.9 44 6.6 37 37 N 15 24 29.98 1015 10 16.0934 0 0
8:58 pm 20:58 Sunny 72 22.4 43 5.9 34 34 NNE 14 22 29.97 1015 10 16.0934 0 0
9:58 pm 21:58 Sunny 72 22.3 41 5 33 33 N 10 17 29.97 1015 10 16.0934 0 0
10:58 pm 22:58 Sunny 73 22.5 40 4.7 31 31 N 15 24 29.99 1016 10 16.0934 0 0
11:58 pm 23:58 Mostly Sunny 71 21.8 40 4.6 33 33 N 9 15 30 1016 10 16.0934 0 0

Powered by AerisWeather